User: anonymous   Login
Location: Unspecified
(0.0000°N, 0.0000°E)
Time: 02:04:37
(UTC+02:00)
Language:

Hubble Space Telescope - Orbit

View from above orbital plane
View from above orbital plane
View from above satellite
View from above satellite

Ground track
Ground track

The orbit data is extracted from the following two-line orbital elements,

1 20580U 90037B   15209.56068799  .00000938  00000-0  48763-4 0  9993
2 20580 028.4692 241.2725 0002738 325.3672 169.0455 15.07579636186069
Epoch (UTC): 28 July 2015 13:27:23
Eccentricity: 0.0002738
inclination: 28.4692°
perigee height: 542 km
apogee height: 545 km
right ascension of ascending node: 241.2725°
argument of perigee: 325.3672°
revolutions per day: 15.07579636
mean anomaly at epoch: 169.0455°
orbit number at epoch: 18606

The dashed part of the orbit path shows where the satellite is in the earth's shadow,  

DLR